Last 6 Hours

AM-Roundhouse Top 7880'

15 Minute Data | America/Los_Angeles
as of 1/23/22 5:16 AM PST
Date & Time Temp (°F) RH (%) Dew Pt (°F) Wet Bulb (°F) Wind Dir (°) Wind Spd (mph) Wind Gust (mph) WindChill (°F)
1/23/22 - 0515 25.4 77 19.1 23.1 ENE | 75 11.5 19.1 15.3
1/23/22 - 0500 25.7 80 20.5 23.7 ENE | 74 12.2 19.0 14.8
1/23/22 - 0445 25.3 80 20.0 23.3 E | 79 11.7 17.0 14.8
1/23/22 - 0430 25.0 81 20.0 23.2 ENE | 73 12.4 18.7 14.2
1/23/22 - 0415 25.0 82 20.2 23.3 ENE | 74 13.2 19.7 13.9
1/23/22 - 0400 25.3 81 20.2 23.4 ENE | 59 8.9 19.2 16.7
1/23/22 - 0345 25.3 82 20.6 23.6 ENE | 62 11.3 17.8 14.8
1/23/22 - 0330 25.3 82 20.6 23.5 ENE | 66 12.0 18.4 14.4
1/23/22 - 0315 25.1 82 20.3 23.3 ENE | 60 11.0 20.6 15.1
1/23/22 - 0300 25.3 80 20.1 23.4 ENE | 69 12.8 21.0 14.0
1/23/22 - 0245 25.1 80 20.0 23.2 ENE | 62 14.2 21.3 13.4
1/23/22 - 0230 24.9 80 19.7 23.0 ENE | 69 14.0 21.2 13.3
1/23/22 - 0215 24.9 80 19.6 22.9 ENE | 66 13.8 22.8 13.4
1/23/22 - 0200 25.0 79 19.5 23.0 ENE | 65 14.6 23.8 13.1
1/23/22 - 0145 24.9 79 19.2 22.8 ENE | 69 16.0 26.2 12.6
1/23/22 - 0130 25.1 78 19.2 22.9 ENE | 68 16.8 23.5 12.4
1/23/22 - 0115 25.5 76 19.0 23.1 ENE | 68 15.1 23.0 13.2
1/23/22 - 0100 25.3 77 19.2 23.0 ENE | 75 14.6 22.3 13.6
1/23/22 - 0045 25.9 76 19.3 23.5 ENE | 57 9.3 17.8 17.1
1/23/22 - 0030 25.8 76 19.2 23.3 NE | 49 5.4 13.1 20.5
1/23/22 - 0015 26.2 74 19.2 23.6 NE | 50 6.4 13.9 19.5
1/23/22 - 0000 26.0 76 19.6 23.6 ENE | 58 7.6 16.4 18.0
1/22/22 - 2345 25.4 77 19.1 23.1 ENE | 59 12.9 21.6 14.3
1/22/22 - 2330 25.2 77 19.1 23.0 NE | 52 10.9 22.5 15.6
Max 26.2 82 20.6 23.7 - 16.8 26.2 20.5
Avg 25.3 79 19.7 23.2 - 12.0 20.0 14.9
Min 24.9 74 19.0 22.8 - 5.4 13.1 12.4